[[{"header":{"parameterUnit":"m.s-1","parameterCategory":1,"la1":30.2991,"la2":30.254,"lo1":-89.0895,"lo2":-89.0444,"dx":0.0017,"dy":0.0017,"nx":28,"ny":28,"refTime":"2022-11-16T15:00:00:Z","depth":0,"parameterNumber":2,"parameterNumberName":"U-component_of_WINDS"},"data":[0,0,0,0,0,0,0,0,0,0,0,0,0,0,0,0,0,0,0,0,0,0,0,0,0,0,0,0,0,0,0,0,0,0,0,0,0,0,0,0,0,0,0,0,0,0,0,0,0,0,0,0,0,0,0,0,0,0,-5.1842,-5.1842,0,-5.1875,-5.1875,-5.1876,-5.1744,-5.174,-5.1736,-5.1732,-5.1767,-5.1771,-5.1775,0,0,0,0,0,0,0,0,0,0,0,0,0,-5.1663,-5.1667,-5.1842,-5.1842,-5.1842,-5.1875,-5.1875,-5.1876,-5.1745,-5.174,-5.1735,-5.1731,-5.1765,-5.177,-5.1776,0,0,0,0,0,0,0,0,0,0,0,0,0,-5.1723,-5.1668,-5.1842,-5.1781,-5.1776,-5.1875,-5.1875,-5.1876,-5.1746,-5.174,-5.1734,-5.1728,-5.1763,-5.177,-5.1777,-5.1936,0,0,-5.1797,-5.18,0,0,0,0,0,0,0,0,-5.172,-5.173,-5.1789,-5.1785,-5.178,-5.1799,-5.1825,-5.1896,-5.1747,-5.1757,-5.1732,-5.1726,-5.1782,-5.1787,-5.1806,-5.1937,-5.1939,-5.1798,-5.1802,-5.1805,-5.1807,0,0,0,0,0,0,0,-5.1716,-5.1727,-5.1855,-5.179,-5.1785,-5.1752,-5.1754,-5.1838,-5.1802,-5.1756,-5.1746,-5.1752,-5.1778,-5.18,-5.1806,-5.1939,-5.1798,-5.1804,-5.1808,-5.1811,-5.2201,-5.2207,0,0,0,0,0,0,-5.172,-5.1725,-5.1854,-5.1856,-5.1735,-5.176,-5.1762,-5.1799,-5.1801,-5.1795,-5.1757,-5.1746,-5.1791,-5.1798,-5.1807,-5.1992,-5.1805,-5.1811,-5.1815,-5.2195,-5.2203,-5.2209,0,0,0,0,0,0,-5.1716,-5.1732,-5.1852,-5.1788,-5.18,-5.1769,-5.1812,-5.1803,-5.1824,-5.1802,-5.1795,-5.1786,-5.1787,-5.1797,-5.1904,-5.1992,-5.1815,-5.1821,-5.2188,-5.2197,-5.2206,-5.2366,0,0,0,0,0,0,-5.1712,-5.1732,-5.1793,-5.179,-5.1805,-5.195,-5.1817,-5.1808,-5.1836,-5.1822,-5.1827,-5.1822,-5.1783,-5.1895,-5.1911,-5.1998,-5.1826,-5.218,-5.2192,-5.2203,-5.2353,-5.2379,-5.2402,0,0,0,0,0,-5.1706,-5.1836,-5.1796,-5.1813,-5.188,-5.1956,-5.1964,-5.1917,-5.1844,-5.1904,-5.1889,-5.1822,-5.198,-5.1907,-5.1924,-5.2014,-5.2174,-5.2189,-5.2202,-5.2341,-5.2374,-5.2402,0,0,0,0,0,0,-5.185,-5.1835,-5.179,-5.1924,-5.1942,-5.1933,-5.2008,-5.1953,-5.1992,-5.1977,-5.1916,-5.1919,-5.2037,-5.2036,-5.1955,-5.2168,-5.2064,-5.2082,-5.2164,-5.2195,-5.222,-5.2217,-5.1832,0,0,0,0,0,-5.1897,-5.1961,-5.1944,-5.2063,-5.2075,-5.204,-5.2072,-5.2034,-5.205,-5.2057,-5.205,-5.2068,-5.2121,-5.2158,-5.2206,-5.2352,-5.235,-5.2422,-5.2447,-5.2468,-5.2484,-5.256,-5.2591,-5.2256,-5.2256,-5.2256,0,0,-5.1996,-5.1995,-5.2039,-5.2092,-5.2102,-5.2168,-5.2048,-5.2123,-5.2172,-5.2068,-5.2169,-5.2165,-5.2181,-5.2308,-5.2363,-5.2311,-5.2576,-5.2486,-5.2502,-5.2507,-5.2578,-5.261,-5.2638,-5.2266,-5.2264,-5.2262,0,0,-5.2209,-5.2216,-5.2315,-5.2327,-5.2343,-5.2319,-5.2343,-5.2343,-5.2336,-5.2436,-5.2359,-5.2416,-5.251,-5.2524,-5.2544,-5.2762,-5.2701,-5.2779,-5.291,-5.2985,-5.3011,-5.3034,-5.3111,-5.314,-5.2796,-5.2796,-5.2796,0,-5.2329,-5.2427,-5.2374,-5.2454,-5.248,-5.2389,-5.2489,-5.2503,-5.2534,-5.2554,-5.2494,-5.2609,-5.2614,-5.2742,-5.2796,-5.2815,-5.284,-5.2778,-5.3011,-5.3034,-5.3055,-5.3128,-5.3157,-5.2805,-5.2804,-5.2803,-5.2803,0,-5.2574,-5.2642,-5.2721,-5.2753,-5.2787,-5.2878,-5.2838,-5.2879,-5.2837,-5.282,-5.2922,-5.2924,-5.2971,-5.2999,-5.2959,-5.3122,-5.3089,-5.3022,-5.2916,-5.3097,-5.3165,-5.3192,-5.2819,-5.2816,-5.2813,-5.281,0,0,-5.2879,-5.288,-5.291,-5.2923,-5.2933,-5.2985,-5.3071,-5.3116,-5.3152,-5.3177,-5.3247,-5.3328,-5.3265,-5.3288,-5.3249,-5.3315,-5.3487,-5.3239,-5.3239,-5.3285,-5.3665,-5.3715,-5.3748,-5.3446,-5.3451,-5.3455,-5.3663,0,-5.3088,-5.3235,-5.3189,-5.3337,-5.3399,-5.3314,-5.3388,-5.3402,-5.3388,-5.3438,-5.3422,-5.348,-5.3394,-5.3407,-5.3468,-5.3453,-5.3562,-5.3437,-5.351,-5.3514,-5.3509,-5.3784,-5.3837,-5.4033,-5.3689,-5.3694,-5.3697,0,-5.3352,-5.3386,-5.3541,-5.354,-5.3564,-5.3632,-5.3669,-5.3719,-5.3733,-5.3718,-5.3743,-5.369,-5.3773,-5.3668,-5.3782,-5.3698,-5.3725,-5.3722,-5.3728,-5.3733,-5.3616,-5.3795,-5.4095,-5.4124,-5.3738,-5.3735,-5.3732,0,-5.3558,-5.3643,-5.3746,-5.376,-5.3762,-5.3812,-5.3815,-5.3823,-5.3853,-5.3885,-5.3904,-5.3946,-5.3969,-5.4003,-5.3963,-5.389,-5.4082,-5.3974,-5.4071,-5.4073,-5.4116,-5.4114,-5.4423,-5.4134,-5.4134,-5.4133,-5.4133,0,-5.3796,-5.3894,-5.3839,-5.3903,-5.4009,-5.3955,-5.4062,-5.4055,-5.4064,-5.4124,-5.4052,-5.411,-5.4053,-5.4106,-5.4075,-5.4174,-5.4185,-5.4174,-5.4165,-5.4181,-5.4182,-5.4197,-5.4182,-5.4141,-5.4139,-5.4138,-5.4137,0,-5.4045,-5.4013,-5.4119,-5.4112,-5.4112,-5.4191,-5.4184,-5.4243,-5.4223,-5.43,-5.4314,-5.4283,-5.4341,-5.4305,-5.4364,-5.4343,-5.4471,-5.4443,-5.4467,-5.4459,-5.4558,-5.4549,-5.4888,-5.493,-5.4615,-5.4618,-5.4621,0,-5.4199,-5.4272,-5.4273,-5.4308,-5.4316,-5.4373,-5.4403,-5.4353,-5.4387,-5.4408,-5.4464,-5.4515,-5.4554,-5.4651,-5.4633,-5.4678,-5.465,-5.4765,-5.4656,-5.4669,-5.4651,-5.4647,-5.4653,-5.4788,-5.4791,-5.4794,-5.4797,0,-5.4475,-5.4455,-5.4501,-5.4542,-5.458,-5.461,-5.4633,-5.4666,-5.4615,-5.4657,-5.4716,-5.4746,-5.4806,-5.4858,-5.4895,-5.4897,-5.4839,-5.4831,-5.4856,-5.4873,-5.4883,-5.4878,-5.4526,-5.4824,-5.4821,-5.4819,-5.4818,-5.4817,-5.4681,-5.4741,-5.4751,-5.4805,-5.4817,-5.4841,-5.4895,-5.4881,-5.4929,-5.4974,-5.4941,-5.501,-5.5021,-5.5065,-5.5075,-5.5128,-5.5081,-5.5117,-5.5126,-5.5136,-5.5149,-5.4875,-5.5134,-5.5134,-5.5133,-5.5132,-5.5132,0,-5.4953,-5.4955,-5.5004,-5.5039,-5.5082,-5.5023,-5.5046,-5.5085,-5.5147,-5.5162,-5.5202,-5.5268,-5.5318,-5.5305,-5.5349,-5.5394,-5.5369,-5.5408,-5.5403,-5.5405,-5.5189,-5.5163,-5.5428,-5.5428,-5.5428,-5.5427,-5.5427,-5.5427,-5.5099,-5.5198,-5.5179,-5.5284,-5.5284,-5.5352,-5.537,-5.5391,-5.5403,-5.548,-5.5522,-5.5512,-5.5516,-5.556,-5.5603,-5.5597,-5.5617,-5.5666,-5.5651,-5.5449,-5.542,-5.5392,-5.5367,-5.5671,-5.5671,-5.5862,-5.5863,-5.5865]},{"header":{"parameterUnit":"m.s-1","parameterCategory":1,"la1":30.2991,"la2":30.254,"lo1":-89.0895,"lo2":-89.0444,"dx":0.0017,"dy":0.0017,"nx":28,"ny":28,"refTime":"2022-11-16T15:00:00:Z","depth":0,"parameterNumber":3,"parameterNumberName":"V-component_of_WINDS"},"data":[0,0,0,0,0,0,0,0,0,0,0,0,0,0,0,0,0,0,0,0,0,0,0,0,0,0,0,0,0,0,0,0,0,0,0,0,0,0,0,0,0,0,0,0,0,0,0,0,0,0,0,0,0,0,0,0,0,0,-4.367,-4.367,0,-4.3703,-4.3703,-4.3704,-4.3639,-4.3637,-4.3635,-4.3633,-4.3665,-4.3668,-4.3671,0,0,0,0,0,0,0,0,0,0,0,0,0,-4.3548,-4.3551,-4.367,-4.367,-4.3671,-4.3703,-4.3704,-4.3704,-4.3639,-4.3637,-4.3634,-4.3632,-4.3664,-4.3667,-4.3671,0,0,0,0,0,0,0,0,0,0,0,0,0,-4.3593,-4.3551,-4.367,-4.3642,-4.364,-4.3703,-4.3704,-4.3704,-4.364,-4.3637,-4.3633,-4.363,-4.3663,-4.3667,-4.3671,-4.3762,0,0,-4.3684,-4.3686,0,0,0,0,0,0,0,0,-4.3591,-4.3598,-4.3646,-4.3645,-4.3642,-4.3664,-4.3672,-4.3723,-4.3641,-4.364,-4.3633,-4.3629,-4.3667,-4.3671,-4.3684,-4.3763,-4.3765,-4.3685,-4.3687,-4.3689,-4.369,0,0,0,0,0,0,0,-4.3588,-4.3596,-4.3683,-4.3647,-4.3645,-4.3628,-4.363,-4.3682,-4.3671,-4.364,-4.3635,-4.364,-4.3665,-4.368,-4.3684,-4.3765,-4.3685,-4.3688,-4.3691,-4.3693,-4.3918,-4.3921,0,0,0,0,0,0,-4.3588,-4.3594,-4.3682,-4.3684,-4.3608,-4.3632,-4.3636,-4.366,-4.367,-4.3669,-4.3643,-4.3637,-4.3674,-4.3679,-4.3685,-4.379,-4.3689,-4.3693,-4.3696,-4.3915,-4.3919,-4.3922,0,0,0,0,0,0,-4.3586,-4.3597,-4.3681,-4.3638,-4.3647,-4.3638,-4.3666,-4.3662,-4.3677,-4.3673,-4.367,-4.366,-4.3672,-4.3679,-4.3743,-4.3791,-4.3695,-4.3699,-4.3911,-4.3916,-4.3921,-4.4003,0,0,0,0,0,0,-4.3583,-4.3596,-4.3631,-4.3639,-4.365,-4.3739,-4.3669,-4.3665,-4.3685,-4.3677,-4.3688,-4.3687,-4.367,-4.3737,-4.3747,-4.3795,-4.3702,-4.3906,-4.3913,-4.3919,-4.3996,-4.401,-4.4022,0,0,0,0,0,-4.3578,-4.3653,-4.3633,-4.3644,-4.3693,-4.3742,-4.3748,-4.3728,-4.3689,-4.3723,-4.372,-4.3686,-4.3784,-4.3744,-4.3755,-4.3805,-4.3903,-4.3911,-4.3919,-4.399,-4.4007,-4.4022,0,0,0,0,0,0,-4.3651,-4.3654,-4.3632,-4.3711,-4.3727,-4.3731,-4.3774,-4.3747,-4.3774,-4.3766,-4.3739,-4.3742,-4.381,-4.3814,-4.3769,-4.3892,-4.3837,-4.3847,-4.3887,-4.3904,-4.3917,-4.3914,-4.3706,0,0,0,0,0,-4.3677,-4.3717,-4.3716,-4.3786,-4.3795,-4.3784,-4.3804,-4.3787,-4.3802,-4.3808,-4.3809,-4.3824,-4.3858,-4.3881,-4.3912,-4.3996,-4.3996,-4.4035,-4.4048,-4.4059,-4.4068,-4.4111,-4.4128,-4.3948,-4.3948,-4.3948,0,0,-4.373,-4.3736,-4.3763,-4.3801,-4.3811,-4.3852,-4.3789,-4.3836,-4.3865,-4.3815,-4.3875,-4.3876,-4.3891,-4.3965,-4.3997,-4.397,-4.4118,-4.4069,-4.4078,-4.4081,-4.4121,-4.4138,-4.4153,-4.3953,-4.3952,-4.3951,0,0,-4.3846,-4.3856,-4.3915,-4.3926,-4.3941,-4.3933,-4.3947,-4.3955,-4.3954,-4.4014,-4.3976,-4.401,-4.407,-4.4081,-4.4095,-4.4215,-4.4184,-4.4225,-4.4295,-4.4337,-4.4351,-4.4364,-4.4405,-4.442,-4.4235,-4.4235,-4.4235,0,-4.391,-4.3971,-4.3948,-4.3997,-4.4014,-4.397,-4.4028,-4.404,-4.4065,-4.4078,-4.4046,-4.4119,-4.4126,-4.4201,-4.423,-4.4243,-4.4257,-4.4224,-4.4351,-4.4363,-4.4375,-4.4414,-4.443,-4.424,-4.4239,-4.4239,-4.4238,0,-4.4047,-4.409,-4.4135,-4.4161,-4.4183,-4.4237,-4.4221,-4.4246,-4.4227,-4.4221,-4.4281,-4.4288,-4.4319,-4.4336,-4.4317,-4.4408,-4.439,-4.4356,-4.43,-4.4397,-4.4433,-4.4448,-4.4247,-4.4245,-4.4243,-4.4242,0,0,-4.4212,-4.4223,-4.424,-4.425,-4.4264,-4.4296,-4.4346,-4.4377,-4.4398,-4.4417,-4.4458,-4.4508,-4.4476,-4.4491,-4.4474,-4.4511,-4.4604,-4.4471,-4.4471,-4.4495,-4.4702,-4.4728,-4.4746,-4.4583,-4.4586,-4.4588,-4.47,0,-4.4327,-4.4415,-4.4395,-4.4481,-4.4519,-4.4477,-4.452,-4.4533,-4.4529,-4.456,-4.4554,-4.459,-4.4545,-4.4554,-4.4589,-4.4585,-4.4645,-4.4577,-4.462,-4.4622,-4.4617,-4.4765,-4.4792,-4.4898,-4.4715,-4.4717,-4.4719,0,-4.4474,-4.4497,-4.4587,-4.4593,-4.4608,-4.4648,-4.4673,-4.4704,-4.4716,-4.471,-4.4727,-4.4702,-4.4751,-4.4695,-4.4761,-4.4715,-4.4731,-4.4732,-4.4735,-4.4738,-4.4676,-4.4771,-4.4931,-4.4947,-4.4741,-4.4739,-4.4738,0,-4.4583,-4.4638,-4.4698,-4.4708,-4.4717,-4.4746,-4.475,-4.476,-4.4779,-4.4801,-4.4812,-4.484,-4.4854,-4.4876,-4.4858,-4.4819,-4.4926,-4.4869,-4.4922,-4.4922,-4.4946,-4.4945,-4.5111,-4.4958,-4.4958,-4.4958,-4.4957,0,-4.4714,-4.477,-4.4747,-4.4785,-4.4846,-4.4822,-4.4883,-4.4882,-4.4891,-4.4926,-4.4891,-4.4925,-4.49,-4.4931,-4.4918,-4.4974,-4.4981,-4.4977,-4.4972,-4.4979,-4.498,-4.499,-4.4981,-4.4962,-4.4961,-4.496,-4.4959,0,-4.4847,-4.4834,-4.4897,-4.4899,-4.4901,-4.4946,-4.4948,-4.4982,-4.4974,-4.5019,-4.5029,-4.5017,-4.5052,-4.5036,-4.5073,-4.5064,-4.5135,-4.5122,-4.5131,-4.5128,-4.5181,-4.5176,-4.5358,-4.538,-4.5214,-4.5216,-4.5217,0,-4.4931,-4.4973,-4.498,-4.5001,-4.5008,-4.5043,-4.5062,-4.5039,-4.506,-4.5077,-4.5109,-4.514,-4.5165,-4.5222,-4.5217,-4.5244,-4.523,-4.5292,-4.5234,-4.524,-4.523,-4.5228,-4.5231,-4.5304,-4.5306,-4.5307,-4.5309,0,-4.5081,-4.5072,-4.5101,-4.5127,-4.5151,-4.517,-4.5187,-4.5206,-4.5184,-4.5209,-4.5244,-4.5263,-4.53,-4.5332,-4.5356,-4.5359,-4.533,-4.5327,-4.534,-4.5348,-4.5352,-4.5349,-4.5162,-4.5323,-4.5321,-4.532,-4.532,-4.5319,-4.5191,-4.5226,-4.5236,-4.5269,-4.5279,-4.5295,-4.5326,-4.5322,-4.5351,-4.538,-4.5364,-4.5405,-4.5415,-4.5444,-4.5452,-4.5482,-4.5458,-4.5478,-4.5483,-4.5488,-4.5494,-4.5347,-4.5487,-4.5486,-4.5486,-4.5486,-4.5485,0,-4.5338,-4.5342,-4.5373,-4.5396,-4.5422,-4.5392,-4.5408,-4.5432,-4.5468,-4.548,-4.5504,-4.5544,-4.5574,-4.557,-4.5598,-4.5623,-4.561,-4.5631,-4.5629,-4.563,-4.5515,-4.55,-4.5641,-4.5641,-4.5641,-4.5641,-4.5641,-4.5641,-4.5418,-4.5475,-4.5467,-4.5528,-4.5531,-4.5571,-4.5583,-4.5597,-4.5606,-4.5652,-4.5677,-4.5674,-4.5679,-4.5706,-4.5732,-4.573,-4.5741,-4.5767,-4.576,-4.5653,-4.5638,-4.5623,-4.5609,-4.577,-4.577,-4.5872,-4.5873,-4.5873]}]]